NOAA 16 DEB, 41208

Orbit data source: Space-Track

NOAA 16 DEB, 41208 is space debris in SSO originally from a launch on Thu, 21 Sep 2000 UTC launched from the Air Force Western Test Range (AFWTR). Debris objects in space refer to the collection of defunct objects orbiting the Earth. Examples of debris include non-operational satellites, rocket bodies, and fragments generated from explosions, collisions, or faulty payload assembly.

Loading next visibility...
Identifier
41208, 2000-055DM
Orbit
SSO
Country
Flag of USUS
Related business
Manufacturer
Unknown
Mission
Spacecraft
Bus & Motor
Unknown
Mass
Unknown
Launch date (UTC)
2000-09-21 (25 years ago)
Launch vehicle
Unknown
Launch site
Air Force Western Test Range (AFWTR)
Object type
Payload
Rocket body
Debris
Shape & HBR
Unknown shape, 0.1 m
Radar Cross Section
Small (<0.1 m²)

Expand to show TLE details & history
Last TLE update: 1 day ago

TLE from 1 day ago
0 NOAA 16 DEB
1 41208U 00055DM  25301.50980087  .00003959  00000-0  19816-2 0  9996
2 41208  98.6711 314.2916 0032101 192.0565 167.9845 14.16979442506727
Epoch: 2025-10-28T12:14Z
TLE epoch observation values (Epoch: 2025-10-28T12:14:06.795Z)
Latitude
-0°
Longitude
93.66702°
Altitude
861.155 km
Speed
7.41 km/s
True Right ascension
20h 57m 09s
True Declination
0° 00' 00"
Sunlit
Object was in daylight at epoch
Visualization orbit readout
Latitude
Unknown
Longitude
Unknown
Altitude
Unknown
Speed
Unknown
Apparent Right ascension
Unknown
Apparent Declination
Unknown
Sunlit
N/A
Visualization observer readout
Local Sidereal Time
08:06:18
Azimuth
Unknown
Elevation
Unknown
Doppler factor
Unknown
Orbital elements
Apogee altitude
855.895 km
Perigee altitude
809.599 km
Semi-major axis
7,210.884 km
Eccentricity
0.00321
Inclination
98.6711°
RAAN
314.2916°
Arg. of periapsis
192.0565°
True anomaly
168.06078°
Mean anomaly
167.9845°
Eccentric anomaly
168.02267°
Mean motion
3.54454 °/min
Orbital period
101.56 mins
BSTAR
0.0019816
Loading maneuver chart data...
Computing Atmospheric mass density...

Documentation

Showing up to 5 results
|